Total_Precipitation_Accumulation
0.22 0.22 0.20 0.17 0.13 0.10 0.08 0.08 0.07 0.07 0.06 0.07 0.07 0.07 0.07 0.08 0.08 0.10 0.10 0.10 0.10 0.09 0.09 0.10 0.10 0.11 0.12 0.12 0.15 0.20 0.24 0.31 0.33 0.16 0.10 0.16 0.24 0.29 0.34 0.34 0.31 0.29 0.25
0.18 0.15 0.13 0.11 0.09 0.08 0.07 0.07 0.07 0.07 0.07 0.08 0.08 0.09 0.08 0.08 0.08 0.10 0.10 0.09 0.09 0.10 0.09 0.10 0.09 0.10 0.11 0.12 0.16 0.18 0.21 0.27 0.36 0.28 0.18 0.21 0.27 0.36 0.44 0.45 0.40 0.35 0.32
0.10 0.09 0.08 0.08 0.07 0.07 0.07 0.08 0.09 0.09 0.09 0.09 0.09 0.09 0.08 0.08 0.09 0.10 0.09 0.08 0.08 0.09 0.09 0.11 0.11 0.12 0.14 0.16 0.20 0.22 0.24 0.27 0.38 0.45 0.35 0.30 0.33 0.43 0.56 0.54 0.45 0.44 0.35
0.07 0.06 0.06 0.07 0.08 0.08 0.09 0.09 0.09 0.10 0.11 0.10 0.08 0.08 0.08 0.09 0.07 0.06 0.05 0.05 0.06 0.06 0.08 0.11 0.12 0.16 0.19 0.22 0.23 0.25 0.32 0.37 0.38 0.43 0.40 0.38 0.41 0.47 0.60 0.66 0.54 0.46 0.38
0.08 0.07 0.09 0.09 0.10 0.11 0.11 0.12 0.12 0.11 0.09 0.08 0.07 0.07 0.08 0.07 0.03 0.02 0.02 0.02 0.04 0.06 0.08 0.11 0.12 0.15 0.21 0.24 0.26 0.32 0.42 0.49 0.46 0.46 0.45 0.44 0.46 0.54 0.58 0.60 0.56 0.45 0.32
0.13 0.14 0.13 0.12 0.12 0.13 0.13 0.12 0.11 0.10 0.08 0.06 0.05 0.05 0.05 0.03 0.01 0.01 0.00 0.01 0.04 0.08 0.12 0.12 0.09 0.09 0.12 0.17 0.24 0.32 0.41 0.49 0.55 0.58 0.56 0.50 0.45 0.50 0.55 0.59 0.57 0.52 0.39
0.20 0.18 0.16 0.13 0.12 0.12 0.10 0.10 0.09 0.07 0.06 0.04 0.04 0.03 0.04 0.03 0.00 0.00 0.00 0.01 0.06 0.12 0.15 0.13 0.08 0.07 0.12 0.17 0.20 0.22 0.29 0.41 0.58 0.70 0.69 0.54 0.53 0.59 0.68 0.70 0.57 0.55 0.51
0.18 0.16 0.13 0.10 0.09 0.09 0.08 0.06 0.05 0.04 0.04 0.04 0.04 0.04 0.05 0.03 0.00 0.00 0.00 0.02 0.06 0.09 0.11 0.11 0.12 0.15 0.16 0.15 0.16 0.22 0.35 0.45 0.53 0.56 0.63 0.63 0.66 0.64 0.61 0.60 0.54 0.55 0.46
0.13 0.11 0.09 0.07 0.06 0.04 0.04 0.04 0.04 0.04 0.04 0.04 0.03 0.04 0.05 0.05 0.01 0.00 0.00 0.02 0.04 0.05 0.06 0.09 0.12 0.17 0.15 0.20 0.28 0.40 0.57 0.72 0.70 0.68 0.72 0.82 0.86 0.73 0.55 0.51 0.58 0.60 0.47
0.09 0.07 0.05 0.03 0.03 0.03 0.03 0.04 0.05 0.04 0.04 0.03 0.03 0.04 0.05 0.07 0.02 0.00 0.00 0.02 0.03 0.03 0.05 0.08 0.15 0.19 0.19 0.30 0.39 0.56 0.77 0.90 0.78 0.71 0.78 0.90 0.85 0.76 0.73 0.68 0.66 0.60 0.50
0.04 0.02 0.02 0.02 0.01 0.02 0.03 0.05 0.05 0.04 0.05 0.04 0.04 0.05 0.06 0.05 0.03 0.00 0.00 0.02 0.04 0.05 0.09 0.15 0.22 0.26 0.25 0.37 0.55 0.70 0.94 0.99 0.85 0.72 0.67 0.67 0.65 0.63 0.62 0.65 0.59 0.52 0.48
0.02 0.02 0.02 0.01 0.01 0.01 0.03 0.05 0.05 0.04 0.04 0.04 0.04 0.04 0.04 0.05 0.04 0.01 0.00 0.01 0.03 0.08 0.19 0.28 0.31 0.31 0.34 0.51 0.66 0.85 1.09 1.17 0.92 0.69 0.53 0.47 0.47 0.50 0.52 0.47 0.41 0.38 0.38
0.02 0.02 0.03 0.02 0.02 0.02 0.03 0.04 0.04 0.04 0.04 0.04 0.04 0.04 0.04 0.05 0.05 0.01 0.01 0.01 0.03 0.09 0.22 0.38 0.39 0.36 0.52 0.77 0.96 1.09 1.23 1.19 0.92 0.65 0.50 0.43 0.39 0.39 0.40 0.40 0.36 0.32 0.31
0.04 0.04 0.04 0.04 0.04 0.04 0.05 0.03 0.04 0.04 0.03 0.04 0.05 0.05 0.05 0.06 0.05 0.04 0.04 0.04 0.07 0.10 0.18 0.34 0.47 0.52 0.69 0.96 1.14 1.23 1.25 1.15 0.91 0.67 0.53 0.45 0.39 0.36 0.37 0.35 0.33 0.29 0.29
0.04 0.04 0.04 0.04 0.04 0.05 0.06 0.03 0.02 0.02 0.01 0.03 0.05 0.07 0.08 0.08 0.05 0.05 0.08 0.09 0.11 0.15 0.19 0.26 0.37 0.50 0.70 0.91 1.03 1.07 1.04 0.98 0.86 0.67 0.54 0.47 0.43 0.39 0.39 0.35 0.32 0.27 0.29
0.03 0.03 0.03 0.03 0.03 0.03 0.05 0.05 0.02 0.01 0.01 0.01 0.03 0.05 0.06 0.06 0.04 0.04 0.06 0.10 0.15 0.20 0.24 0.33 0.47 0.60 0.76 0.89 0.96 0.94 0.87 0.81 0.73 0.62 0.53 0.47 0.44 0.40 0.39 0.34 0.28 0.25 0.28
0.02 0.02 0.02 0.02 0.01 0.02 0.03 0.06 0.08 0.05 0.02 0.02 0.02 0.03 0.04 0.04 0.03 0.03 0.06 0.10 0.13 0.19 0.26 0.40 0.55 0.69 0.81 0.86 0.87 0.83 0.78 0.73 0.62 0.53 0.48 0.44 0.39 0.35 0.32 0.28 0.25 0.24 0.24
0.02 0.02 0.01 0.01 0.01 0.01 0.02 0.03 0.06 0.09 0.10 0.09 0.06 0.03 0.03 0.04 0.05 0.05 0.07 0.09 0.12 0.19 0.33 0.47 0.59 0.66 0.75 0.79 0.77 0.75 0.70 0.63 0.53 0.48 0.46 0.42 0.36 0.30 0.26 0.23 0.21 0.19 0.17
0.02 0.02 0.01 0.01 0.00 0.01 0.01 0.02 0.03 0.06 0.08 0.09 0.08 0.05 0.05 0.07 0.08 0.10 0.12 0.13 0.20 0.28 0.37 0.46 0.53 0.58 0.63 0.66 0.64 0.60 0.58 0.54 0.47 0.43 0.41 0.40 0.37 0.30 0.23 0.18 0.15 0.13 0.12
0.01 0.01 0.00 0.00 0.00 0.01 0.01 0.02 0.03 0.05 0.06 0.09 0.09 0.08 0.08 0.12 0.13 0.14 0.14 0.15 0.21 0.29 0.36 0.44 0.47 0.46 0.46 0.48 0.46 0.43 0.41 0.41 0.39 0.38 0.37 0.35 0.32 0.25 0.19 0.14 0.12 0.10 0.09
0.01 0.00 0.00 0.00 0.00 0.00 0.01 0.01 0.02 0.03 0.05 0.08 0.09 0.10 0.16 0.18 0.22 0.22 0.23 0.25 0.28 0.31 0.34 0.36 0.39 0.39 0.36 0.33 0.33 0.33 0.33 0.34 0.33 0.34 0.33 0.30 0.26 0.21 0.15 0.11 0.08 0.06 0.05
0.00 0.00 0.00 0.00 0.00 0.00 0.00 0.01 0.02 0.02 0.04 0.06 0.07 0.09 0.17 0.19 0.23 0.27 0.30 0.32 0.34 0.36 0.34 0.33 0.31 0.33 0.34 0.32 0.29 0.28 0.29 0.29 0.31 0.32 0.30 0.26 0.23 0.18 0.12 0.08 0.05 0.04 0.04
0.00 0.00 0.00 0.00 0.00 0.00 0.00 0.01 0.01 0.01 0.02 0.04 0.05 0.07 0.11 0.17 0.25 0.32 0.37 0.38 0.37 0.35 0.31 0.28 0.29 0.31 0.30 0.27 0.25 0.24 0.24 0.24 0.27 0.30 0.29 0.24 0.20 0.15 0.11 0.07 0.05 0.04 0.03
0.00 0.00 0.00 0.00 0.00 0.00 0.00 0.01 0.01 0.01 0.02 0.02 0.04 0.06 0.10 0.16 0.23 0.32 0.38 0.41 0.43 0.42 0.37 0.33 0.30 0.30 0.27 0.24 0.23 0.22 0.18 0.19 0.21 0.25 0.26 0.21 0.16 0.12 0.09 0.07 0.05 0.04 0.03
0.00 0.00 0.00 0.00 0.00 0.00 0.00 0.01 0.00 0.01 0.01 0.01 0.02 0.04 0.06 0.10 0.16 0.23 0.29 0.35 0.40 0.45 0.45 0.42 0.38 0.32 0.26 0.21 0.17 0.14 0.16 0.19 0.17 0.16 0.22 0.18 0.11 0.08 0.07 0.06 0.04 0.04 0.04
0.00 0.00 0.00 0.00 0.00 0.00 0.00 0.00 0.00 0.00 0.00 0.01 0.01 0.03 0.05 0.08 0.12 0.16 0.19 0.22 0.26 0.33 0.39 0.44 0.42 0.33 0.24 0.19 0.17 0.16 0.15 0.10 0.07 0.07 0.16 0.17 0.11 0.08 0.07 0.06 0.05 0.04 0.04